Waarnemingen

Advertentie
Mijn weer
Lycksele, Zweden (2261): temperatuur & dauwpunt: 19.05.2019 21:00:00 - 25.05.2019 21:00:00 (CEST)Lycksele, Zweden (2261): windsnelheid & windstoten: 19.05.2019 21:00:00 - 25.05.2019 21:00:00 (CEST)Lycksele, Zweden (2261): windrichting: 19.05.2019 21:00:00 - 25.05.2019 21:00:00 (CEST)Lycksele, Zweden (2261): luchtdruk: 19.05.2019 21:00:00 - 25.05.2019 21:00:00 (CEST)Lycksele, Zweden (2261): zicht: 19.05.2019 21:00:00 - 25.05.2019 21:00:00 (CEST)Lycksele, Zweden (2261): neerslag: 19.05.2019 21:00:00 - 25.05.2019 21:00:00 (CEST)
Datum & Tijd tt [°C] td [°C] ff [km/u] ff [kn] fx [km/u] fx [kn] dd ppp [hPa] vv [km] rr [mm]
25.05.2019 21:00:00 7,8 3,5 7 4 22 12 WNW 1002,2 42 0,0
25.05.2019 20:00:00 8,9 4,3 6 3 9 5 W 1002,3 50 0,0
25.05.2019 19:00:00 8,3 6,1 0 0 24 13 N 1002,7 42 0,2
25.05.2019 18:00:00 9,0 4,2 0 0 35 19 N 1003,1 50 0,0
25.05.2019 17:00:00 9,6 4,0 10 5 23 12 N 1003,1 47 0,1
25.05.2019 16:00:00 9,7 3,2 10 5 21 11 WNW 1003,4 50 0,0
25.05.2019 15:00:00 9,2 2,7 8 4 19 11 NNW 1003,8 50 0,0
25.05.2019 14:00:00 8,7 2,5 11 6 18 10 NNW 1004,2 48 0,0
25.05.2019 13:00:00 7,7 2,8 10 6 23 12 N 1004,7 50 0,0
25.05.2019 12:00:00 7,1 2,6 13 7 21 12 NNW 1004,9 50 0,0
25.05.2019 11:00:00 6,8 3,2 11 6 17 9 NNW 1005,3 50 0,0
25.05.2019 10:00:00 5,8 3,6 11 6 17 9 N 1005,4 50 0,0
25.05.2019 09:00:00 5,5 3,7 10 5 17 9 N 1005,6 50 0,0
25.05.2019 08:00:00 5,2 3,7 10 5 14 8 N 1005,8 50 0,0
25.05.2019 07:00:00 4,7 3,4 8 4 13 7 NNW 1006,1 32 0,8
25.05.2019 06:00:00 4,5 3,6 7 4 12 7 N 1006,4 45 0,1
25.05.2019 05:00:00 4,5 3,8 8 4 11 6 N 1006,5 50 0,1
25.05.2019 04:00:00 4,5 3,9 5 3 10 5 NNW 1006,6 43 0,0
25.05.2019 03:00:00 4,9 3,6 3 2 8 4 N 1006,8 50 0,0
25.05.2019 02:00:00 5,2 3,7 3 1 9 5 NNO 1007,0 50 0,0
25.05.2019 01:00:00 5,5 4,1 0 0 5 3 N 1007,2 50 0,0
25.05.2019 00:00:00 5,6 4,1 3 1 5 3 NNW 1007,4 50 0,0
24.05.2019 23:00:00 5,8 4,0 0 0 6 3 N 1007,6 50 0,0
24.05.2019 22:00:00 5,8 4,3 3 2 8 4 ZZO 1007,8 50 0,0
24.05.2019 21:00:00 6,1 4,3 5 3 - - ONO 1007,8 50 0,0
24.05.2019 20:00:00 6,3 4,0 4 2 11 6 NO 1008,2 50 0,0
24.05.2019 19:00:00 6,5 3,8 4 2 9 5 O 1008,2 50 0,0
24.05.2019 18:00:00 6,6 4,1 8 4 12 7 NO 1008,4 50 0,0
24.05.2019 17:00:00 6,5 4,3 5 3 13 7 NO 1008,5 50 0,0
24.05.2019 16:00:00 6,4 3,7 6 3 16 9 NO 1008,8 50 0,0
24.05.2019 15:00:00 6,5 4,5 7 4 14 8 O 1008,8 50 0,0
24.05.2019 14:00:00 6,0 4,2 9 5 15 8 O 1009,1 40 0,0
24.05.2019 13:00:00 6,2 4,7 7 4 15 8 NO 1009,2 11 0,0
24.05.2019 12:00:00 5,7 4,0 6 3 17 9 NO 1009,6 50 0,0
24.05.2019 11:00:00 5,5 4,1 9 5 18 10 O 1009,6 50 0,0
24.05.2019 10:00:00 5,0 4,0 8 4 18 10 NO 1009,8 38 0,0
24.05.2019 09:00:00 4,7 3,5 11 6 19 11 ONO 1009,9 50 0,0
24.05.2019 08:00:00 4,8 4,1 8 4 16 8 O 1010,1 47 0,0
24.05.2019 07:00:00 4,1 4,0 6 3 - - N 1010,4 17 0,1
24.05.2019 06:00:00 3,4 3,4 8 4 11 6 N 1010,6 17 0,3
24.05.2019 05:00:00 3,0 3,0 7 4 - - N 1011,2 6 0,8
24.05.2019 04:00:00 2,9 2,6 5 3 10 5 NNW 1011,7 12 1,4
24.05.2019 03:00:00 2,9 2,6 4 2 - - NNO 1012,2 7 0,9
24.05.2019 02:00:00 2,8 2,7 7 4 10 5 N 1013,0 6 1,1
24.05.2019 01:00:00 3,0 2,4 3 1 7 4 NNW 1013,6 12 0,9
24.05.2019 00:00:00 3,0 2,1 0 0 11 6 N 1013,7 19 0,7
23.05.2019 23:00:00 3,0 2,1 8 4 17 9 O 1013,9 9 1,0
23.05.2019 22:00:00 3,0 2,1 9 5 18 10 O 1014,1 18 0,8
23.05.2019 21:00:00 3,0 2,1 8 4 16 9 O 1014,3 18 0,7
23.05.2019 20:00:00 3,0 2,0 10 5 18 10 O 1014,8 28 0,6
23.05.2019 19:00:00 3,4 2,4 8 5 15 8 O 1015,2 22 0,9
23.05.2019 18:00:00 3,4 2,4 11 6 19 11 O 1015,4 13 1,6
23.05.2019 17:00:00 3,7 2,7 10 5 21 12 O 1015,6 16 1,2
23.05.2019 16:00:00 3,8 2,6 12 7 27 15 O 1016,1 14 0,9
23.05.2019 15:00:00 4,2 2,7 13 7 28 15 O 1016,2 27 0,5
23.05.2019 14:00:00 4,2 2,5 14 7 24 13 O 1016,7 14 0,6
23.05.2019 13:00:00 4,0 2,4 9 5 22 12 O 1016,9 22 0,5
23.05.2019 12:00:00 3,9 2,3 9 5 - - O 1016,9 20 0,2
23.05.2019 11:00:00 3,8 1,3 11 6 20 11 O 1017,2 36 0,2
23.05.2019 10:00:00 3,6 1,5 13 7 19 10 O 1017,3 30 0,1
23.05.2019 09:00:00 3,5 1,7 11 6 26 14 O 1017,2 26 0,2
23.05.2019 08:00:00 3,4 1,4 11 6 19 10 O 1017,4 22 0,1
23.05.2019 07:00:00 3,4 1,9 7 4 17 9 O 1017,7 20 0,0
23.05.2019 06:00:00 3,5 1,9 8 4 14 8 ONO 1017,6 22 0,5
23.05.2019 05:00:00 3,7 2,5 5 3 15 8 ONO 1017,7 16 0,6
23.05.2019 04:00:00 4,0 2,5 6 3 14 8 ONO 1018,0 16 1,2
23.05.2019 03:00:00 4,3 3,1 4 2 29 16 O 1018,2 10 1,3
23.05.2019 02:00:00 5,2 4,2 8 5 14 7 O 1017,8 12 0,5
23.05.2019 01:00:00 5,2 4,3 4 2 17 9 ONO 1017,7 7 0,9
23.05.2019 00:00:00 5,7 4,3 7 4 26 14 O 1017,5 16 0,3
22.05.2019 23:00:00 6,5 5,4 16 9 29 16 O 1017,0 6 0,7
22.05.2019 22:00:00 7,8 6,9 10 5 18 10 OZO 1016,1 7 1,3
22.05.2019 21:00:00 8,4 7,3 12 6 29 16 ZO 1015,5 9 0,6
22.05.2019 20:00:00 10,2 7,4 14 8 33 18 OZO 1014,8 18 0,2
22.05.2019 19:00:00 13,4 8,0 16 8 32 17 O 1013,4 32 0,0
22.05.2019 18:00:00 16,1 10,6 13 7 21 11 O 1012,0 34 0,3
22.05.2019 17:00:00 18,0 10,6 9 5 23 12 O 1011,8 30 0,0
22.05.2019 16:00:00 19,4 8,7 16 9 27 15 OZO 1011,6 42 0,0
22.05.2019 15:00:00 20,2 9,4 16 8 23 12 OZO 1011,5 48 0,0
22.05.2019 14:00:00 20,4 7,4 13 7 24 13 OZO 1011,9 41 0,0
22.05.2019 13:00:00 20,4 7,7 6 4 - - Z 1012,2 36 0,0
22.05.2019 12:00:00 19,4 8,4 8 4 16 9 O 1012,8 47 0,0
22.05.2019 11:00:00 18,9 8,2 7 4 18 10 OZO 1013,0 44 0,0
22.05.2019 10:00:00 19,0 8,6 9 5 15 8 ZO 1013,2 33 0,0
22.05.2019 09:00:00 16,9 11,0 2 1 9 5 N 1013,5 43 0,0
22.05.2019 08:00:00 14,3 10,3 5 3 8 4 NNW 1014,2 28 0,0
22.05.2019 07:00:00 12,3 9,9 0 0 5 3 N 1014,6 29 0,0
22.05.2019 06:00:00 8,7 8,7 0 0 0 0 N 1015,0 16 0,0
22.05.2019 05:00:00 6,4 6,4 0 0 3 1 N 1015,5 18 0,0
22.05.2019 04:00:00 5,1 5,1 0 0 0 0 N 1016,0 13 0,0
22.05.2019 03:00:00 4,3 4,3 0 0 4 2 N 1016,1 12 0,0
22.05.2019 02:00:00 4,6 4,6 0 0 - - N 1016,1 13 0,0
22.05.2019 01:00:00 5,8 5,8 0 0 - - N 1016,3 13 0,0
22.05.2019 00:00:00 7,1 7,1 0 0 0 0 N 1016,1 2,9 0,0
21.05.2019 23:00:00 9,0 8,9 0 0 1 1 N 1015,8 7 0,0
21.05.2019 22:00:00 11,2 9,6 0 0 6 3 N 1015,5 45 0,0
21.05.2019 21:00:00 16,1 10,2 6 3 13 7 NNO 1014,8 46 0,0
21.05.2019 20:00:00 16,9 10,0 7 4 17 9 NO 1014,5 45 0,0
21.05.2019 19:00:00 17,5 10,1 8 4 16 9 NO 1014,6 42 0,0
21.05.2019 18:00:00 18,0 10,9 11 6 21 11 NNO 1014,8 36 0,0
21.05.2019 17:00:00 18,0 10,1 9 5 20 11 NO 1014,8 37 0,0
21.05.2019 16:00:00 17,4 10,8 10 5 17 9 NO 1015,0 45 0,0
21.05.2019 15:00:00 17,3 10,9 9 5 16 8 O 1015,2 39 0,0
21.05.2019 14:00:00 17,3 10,4 6 4 12 6 NO 1015,4 33 0,0
21.05.2019 13:00:00 16,6 10,7 8 5 13 7 NNO 1015,5 28 0,0
21.05.2019 12:00:00 15,7 11,1 8 4 12 6 NW 1015,7 38 0,0
21.05.2019 11:00:00 14,8 10,8 4 2 9 5 NNW 1015,6 39 0,0
21.05.2019 10:00:00 14,3 10,5 0 0 6 3 N 1015,5 33 0,0
21.05.2019 09:00:00 13,2 10,7 0 0 9 5 N 1015,7 26 0,0
21.05.2019 08:00:00 12,0 10,6 5 3 8 4 NW 1015,6 21 0,0
21.05.2019 07:00:00 11,1 10,6 4 2 10 5 NNW 1015,8 16 0,0
21.05.2019 06:00:00 9,4 9,4 4 2 8 4 WNW 1015,6 14 0,0
21.05.2019 05:00:00 5,8 5,8 0 0 - - N 1015,9 13 0,0
21.05.2019 04:00:00 5,2 5,2 0 0 - - N 1015,8 7 0,0
21.05.2019 03:00:00 5,7 5,7 0 0 - - N 1015,6 19 0,0
21.05.2019 02:00:00 6,7 6,7 0 0 0 0 N 1015,2 7 0,0
21.05.2019 01:00:00 8,6 8,3 0 0 7 4 N 1015,0 31 0,0
21.05.2019 00:00:00 11,3 10,2 4 2 9 5 WNW 1014,4 50 0,0
20.05.2019 23:00:00 12,7 10,2 0 0 5 3 N 1014,0 50 0,0
20.05.2019 22:00:00 16,1 10,6 5 3 14 8 N 1013,3 50 0,0
20.05.2019 21:00:00 18,6 10,2 4 2 8 5 NW 1012,9 48 0,0
20.05.2019 20:00:00 18,9 9,1 6 3 15 8 NNW 1012,7 41 0,0
20.05.2019 19:00:00 18,6 8,8 11 6 19 11 NNW 1012,8 50 0,0
20.05.2019 18:00:00 19,3 8,6 13 7 17 9 NW 1012,7 50 0,0
20.05.2019 17:00:00 20,1 9,1 10 5 21 12 N 1012,6 49 0,0
20.05.2019 16:00:00 19,4 9,0 10 5 22 12 WNW 1012,9 48 0,0
20.05.2019 15:00:00 19,4 9,6 13 7 20 11 WNW 1012,8 46 0,0
20.05.2019 14:00:00 19,5 8,8 4 2 10 5 ZW 1012,7 50 0,0
20.05.2019 13:00:00 19,2 9,1 0 0 11 6 N 1012,7 42 0,0
20.05.2019 12:00:00 18,8 9,6 3 2 14 8 O 1012,9 45 0,0
20.05.2019 11:00:00 17,9 10,0 9 5 14 8 OZO 1013,0 50 0,0
20.05.2019 10:00:00 16,7 10,3 6 3 10 5 OZO 1013,2 39 0,0
20.05.2019 09:00:00 14,9 10,1 3 2 11 6 OZO 1013,8 33 0,0
20.05.2019 08:00:00 12,6 10,5 10 6 13 7 ZO 1013,9 48 0,0
20.05.2019 07:00:00 12,0 10,7 6 3 9 5 ZZO 1014,0 35 0,0
20.05.2019 06:00:00 11,1 10,5 5 3 6 4 ZO 1014,3 48 0,0
20.05.2019 05:00:00 10,0 10,0 0 0 5 3 N 1014,9 7 0,0
20.05.2019 04:00:00 10,5 10,0 6 4 12 6 ZO 1014,8 48 0,0
20.05.2019 03:00:00 10,4 10,1 0 0 6 3 N 1015,1 32 0,0
20.05.2019 02:00:00 10,6 10,1 4 2 10 5 ZZO 1015,4 50 0,0
20.05.2019 01:00:00 10,7 10,2 2 1 13 7 Z 1015,4 47 1,6
20.05.2019 00:00:00 11,6 9,3 4 2 11 6 Z 1015,2 50 0,2
19.05.2019 23:00:00 11,7 10,1 8 5 13 7 ZZO 1015,4 19 0,0
19.05.2019 22:00:00 11,4 10,5 0 0 10 5 N 1015,2 33 0,1
19.05.2019 21:00:00 14,5 7,1 6 3 13 7 Z 1015,1 5 0,0

tt = temperatuur
td = dauwpunt
ff = windsnelheid
fx = windstoten
dd = windrichting
ppp = luchtdruk
vv = zicht
rr = neerslag

Weerstations in de omgeving